| time (UTC) | temp F | wind direction | speed MPH | gust MPH | rain 1hr in | rain 24hr in | rain mn in | humidity % | barometer mb |
| 20260502221519 | 51 | 0.0 | 0.0 | 0.00 | 0.12 | 0.12 | 48 | 1009.7 | |
| 20260502221008 | 52 | 0.0 | 0.0 | 0.00 | 0.12 | 0.12 | 48 | 1009.7 | |
| 20260502220511 | 52 | 0.0 | 0.0 | 0.00 | 0.12 | 0.12 | 51 | 1009.6 | |
| 20260502220026 | 52 | 0.0 | 0.0 | 0.00 | 0.12 | 0.12 | 53 | 1009.6 | |
| 20260502215513 | 52 | 0.0 | 0.0 | 0.00 | 0.12 | 0.12 | 51 | 1009.6 | |
| 20260502215009 | 52 | 0.0 | 0.0 | 0.00 | 0.12 | 0.12 | 51 | 1009.6 | |
| 20260502214525 | 52 | 0.0 | 0.0 | 0.00 | 0.12 | 0.12 | 50 | 1009.6 | |
| 20260502214006 | 52 | 0.0 | 0.0 | 0.00 | 0.12 | 0.12 | 51 | 1009.7 | |
| 20260502213507 | 52 | 0.0 | 0.0 | 0.00 | 0.12 | 0.12 | 50 | 1009.7 | |
| 20260502213038 | 52 | 0.0 | 0.0 | 0.00 | 0.12 | 0.12 | 51 | 1009.7 | |
| 20260502212503 | 52 | 0.0 | 0.0 | 0.00 | 0.12 | 0.12 | 51 | 1009.6 | |
| 20260502212008 | 52 | 0.0 | 0.0 | 0.00 | 0.12 | 0.12 | 53 | 1009.5 | |
| 20260502211522 | 52 | 0.0 | 0.0 | 0.00 | 0.12 | 0.12 | 52 | 1009.5 | |
| 20260502211007 | 52 | 0.0 | 0.0 | 0.00 | 0.12 | 0.12 | 52 | 1009.4 | |
| 20260502210506 | 52 | 0.0 | 0.0 | 0.00 | 0.12 | 0.12 | 53 | 1009.4 | |
| 20260502210022 | 53 | 0.0 | 0.0 | 0.00 | 0.12 | 0.12 | 53 | 1009.3 | |
| 20260502205511 | 53 | 0.0 | 0.0 | 0.00 | 0.12 | 0.12 | 57 | 1009.3 | |
| 20260502205009 | 53 | 0.0 | 0.0 | 0.00 | 0.12 | 0.12 | 58 | 1009.3 | |
| 20260502204528 | 53 | 0.0 | 0.0 | 0.00 | 0.12 | 0.12 | 57 | 1009.4 | |
| 20260502204014 | 53 | 0.0 | 0.0 | 0.00 | 0.12 | 0.12 | 56 | 1009.3 | |
| 20260502203509 | 54 | 0.0 | 0.0 | 0.00 | 0.12 | 0.12 | 53 | 1009.2 | |
| 20260502203030 | 55 | 0.0 | 0.0 | 0.00 | 0.12 | 0.12 | 55 | 1009.3 | |
| 20260502202511 | 54 | 0.0 | 0.0 | 0.00 | 0.12 | 0.12 | 56 | 1009.4 | |
| 20260502202006 | 55 | 0.0 | 0.0 | 0.00 | 0.12 | 0.12 | 54 | 1009.5 | |
| 20260502201532 | 54 | 0.0 | 0.0 | 0.00 | 0.12 | 0.12 | 52 | 1009.5 | |
| 20260502201008 | 54 | 0.0 | 0.0 | 0.00 | 0.12 | 0.12 | 54 | 1009.6 | |
| 20260502200507 | 54 | 0.0 | 0.0 | 0.00 | 0.12 | 0.12 | 55 | 1009.6 | |
| 20260502200003 | 55 | 0.0 | 0.0 | 0.00 | 0.12 | 0.12 | 55 | 1009.6 | |
| 20260502195503 | 55 | 0.0 | 0.0 | 0.00 | 0.12 | 0.12 | 52 | 1009.7 | |
| 20260502195002 | 56 | 0.0 | 0.0 | 0.00 | 0.12 | 0.12 | 54 | 1009.9 | |
| 20260502194504 | 54 | 0.0 | 0.0 | 0.00 | 0.12 | 0.12 | 54 | 1009.9 | |
| 20260502194004 | 54 | 0.0 | 0.0 | 0.00 | 0.12 | 0.12 | 53 | 1010.0 | |
| 20260502193503 | 54 | 0.0 | 0.0 | 0.00 | 0.12 | 0.12 | 53 | 1010.2 | |
| 20260502193012 | 54 | 0.0 | 0.0 | 0.00 | 0.12 | 0.12 | 52 | 1010.3 | |
| 20260502192503 | 55 | 0.0 | 0.0 | 0.00 | 0.12 | 0.12 | 57 | 1010.4 | |
| 20260502192003 | 54 | 0.0 | 0.0 | 0.00 | 0.12 | 0.12 | 56 | 1010.4 | |
| 20260502191515 | 55 | 0.0 | 0.0 | 0.00 | 0.12 | 0.12 | 54 | 1010.4 | |
| 20260502191007 | 56 | 0.0 | 0.0 | 0.00 | 0.12 | 0.12 | 54 | 1010.4 | |
| 20260502190507 | 55 | 0.0 | 0.0 | 0.00 | 0.12 | 0.12 | 55 | 1010.4 | |
| 20260502190021 | 54 | 0.0 | 0.0 | 0.00 | 0.12 | 0.12 | 56 | 1010.6 | |
| 20260502185508 | 53 | 0.0 | 0.0 | 0.00 | 0.12 | 0.12 | 57 | 1010.7 | |
| 20260502185011 | 53 | 0.0 | 0.0 | 0.00 | 0.12 | 0.12 | 60 | 1010.8 | |
| 20260502184506 | 52 | 0.0 | 0.0 | 0.00 | 0.12 | 0.12 | 58 | 1010.8 | |
| 20260502184003 | 53 | 0.0 | 0.0 | 0.00 | 0.12 | 0.12 | 57 | 1010.9 | |
| 20260502183503 | 54 | 0.0 | 0.0 | 0.00 | 0.12 | 0.12 | 58 | 1010.9 | |
| 20260502183010 | 52 | 0.0 | 0.0 | 0.00 | 0.12 | 0.12 | 59 | 1010.9 | |
| 20260502182504 | 53 | 0.0 | 0.0 | 0.00 | 0.12 | 0.12 | 58 | 1010.9 | |
| 20260502182006 | 52 | 0.0 | 0.0 | 0.00 | 0.12 | 0.12 | 58 | 1010.8 | |
| 20260502181514 | 52 | 0.0 | 0.0 | 0.00 | 0.12 | 0.12 | 61 | 1010.8 | |
| 20260502181006 | 53 | 0.0 | 0.0 | 0.00 | 0.12 | 0.12 | 59 | 1010.9 | |
| 20260502180507 | 52 | 0.0 | 0.0 | 0.00 | 0.12 | 0.12 | 65 | 1010.8 | |
| 20260502170509 | 48 | 0.0 | 0.0 | 0.00 | 0.12 | 0.12 | 71 | 1011.4 | |
| 20260502164006 | 49 | 0.0 | 0.0 | 0.00 | 0.12 | 0.12 | 72 | 1011.5 | |
| 20260502163506 | 49 | 0.0 | 0.0 | 0.00 | 0.12 | 0.12 | 74 | 1011.4 | |
| 20260502163025 | 48 | 0.0 | 0.0 | 0.00 | 0.12 | 0.12 | 72 | 1011.5 | |
| 20260502162504 | 49 | 0.0 | 0.0 | 0.00 | 0.12 | 0.12 | 75 | 1011.5 | |
| 20260502162001 | 49 | 0.0 | 0.0 | 0.00 | 0.12 | 0.12 | 75 | 1011.6 | |
| 20260502161510 | 48 | 0.0 | 0.0 | 0.00 | 0.12 | 0.12 | 75 | 1011.5 | |
| 20260502161003 | 49 | 0.0 | 0.0 | 0.00 | 0.12 | 0.12 | 74 | 1011.6 | |
| 20260502160505 | 49 | 0.0 | 0.0 | 0.00 | 0.12 | 0.12 | 75 | 1011.4 | |
| 20260502152014 | 47 | 0.0 | 0.0 | 0.00 | 0.12 | 0.12 | 79 | 1011.5 | |
| 20260502151528 | 47 | 0.0 | 0.0 | 0.00 | 0.12 | 0.12 | 80 | 1011.6 | |
| 20260502151002 | 48 | 0.0 | 0.0 | 0.00 | 0.12 | 0.12 | 79 | 1011.3 | |
| 20260502150505 | 48 | 0.0 | 0.0 | 0.00 | 0.12 | 0.12 | 78 | 1011.3 | |
| 20260502130510 | 49 | 0.0 | 0.0 | 0.00 | 0.12 | 0.12 | 82 | 1011.4 | |
| 20260502123507 | 47 | 0.0 | 0.0 | 0.00 | 0.12 | 0.12 | 86 | 1011.5 | |
| 20260502123021 | 47 | 0.0 | 0.0 | 0.00 | 0.12 | 0.12 | 89 | 1011.6 | |
| 20260502122511 | 46 | 0.0 | 0.0 | 0.00 | 0.12 | 0.12 | 88 | 1011.6 | |
| 20260502122010 | 46 | 0.0 | 0.0 | 0.00 | 0.12 | 0.12 | 89 | 1011.6 | |
| 20260502121529 | 46 | 0.0 | 0.0 | 0.00 | 0.12 | 0.12 | 89 | 1011.5 | |
| 20260502121008 | 45 | 0.0 | 0.0 | 0.00 | 0.12 | 0.12 | 89 | 1011.5 | |
| 20260502120507 | 45 | 0.0 | 0.0 | 0.00 | 0.12 | 0.12 | 89 | 1011.6 | |
| 20260502115510 | 45 | 0.0 | 0.0 | 0.00 | 0.12 | 0.12 | 89 | 1011.5 | |
| 20260502115007 | 45 | 0.0 | 0.0 | 0.00 | 0.12 | 0.12 | 89 | 1011.6 | |
| 20260502114528 | 45 | 0.0 | 0.0 | 0.01 | 0.12 | 0.12 | 89 | 1011.6 | |
| 20260502114008 | 45 | 0.0 | 0.0 | 0.01 | 0.12 | 0.12 | 89 | 1011.6 | |
| 20260502113504 | 45 | 0.0 | 0.0 | 0.03 | 0.12 | 0.12 | 89 | 1011.5 | |
| 20260502113017 | 45 | 0.0 | 0.0 | 0.03 | 0.12 | 0.12 | 89 | 1011.4 | |
| 20260502112504 | 45 | 0.0 | 0.0 | 0.04 | 0.12 | 0.12 | 89 | 1011.4 | |
| 20260502112007 | 45 | 0.0 | 0.0 | 0.06 | 0.12 | 0.12 | 89 | 1011.4 | |
| 20260502111523 | 45 | 0.0 | 0.0 | 0.07 | 0.12 | 0.12 | 89 | 1011.4 | |
| 20260502111008 | 44 | 0.0 | 0.0 | 0.07 | 0.12 | 0.12 | 89 | 1011.4 | |
| 20260502110507 | 45 | 0.0 | 0.0 | 0.07 | 0.12 | 0.12 | 89 | 1011.4 | |
| 20260502110004 | 45 | 0.0 | 0.0 | 0.07 | 0.12 | 0.12 | 89 | 1011.4 | |
| 20260502105505 | 44 | 0.0 | 0.0 | 0.07 | 0.12 | 0.12 | 89 | 1011.5 | |
| 20260502105002 | 44 | 0.0 | 0.0 | 0.07 | 0.12 | 0.12 | 89 | 1011.6 | |
| 20260502104508 | 44 | 0.0 | 0.0 | 0.06 | 0.11 | 0.11 | 89 | 1011.6 | |
| 20260502104003 | 44 | 0.0 | 0.0 | 0.07 | 0.11 | 0.11 | 89 | 1011.8 | |
| 20260502103504 | 44 | 0.0 | 0.0 | 0.06 | 0.09 | 0.09 | 89 | 1011.8 | |
| 20260502103012 | 44 | 0.0 | 0.0 | 0.07 | 0.09 | 0.09 | 89 | 1011.6 | |
| 20260502102505 | 44 | 0.0 | 0.0 | 0.06 | 0.08 | 0.08 | 89 | 1011.6 | |
| 20260502102003 | 44 | 0.0 | 0.0 | 0.04 | 0.06 | 0.06 | 89 | 1011.5 | |
| 20260502101509 | 44 | 0.0 | 0.0 | 0.03 | 0.05 | 0.05 | 89 | 1011.4 | |
| 20260502101003 | 44 | 0.0 | 0.0 | 0.03 | 0.05 | 0.05 | 89 | 1011.1 | |
| 20260502100502 | 44 | 0.0 | 0.0 | 0.03 | 0.05 | 0.05 | 89 | 1011.1 | |
| 20260502091515 | 45 | 0.0 | 0.0 | 0.01 | 0.02 | 0.02 | 86 | 1011.0 | |
| 20260502091005 | 45 | 0.0 | 0.0 | 0.01 | 0.02 | 0.02 | 86 | 1011.0 | |
| 20260502090503 | 45 | 0.0 | 0.0 | 0.01 | 0.02 | 0.02 | 86 | 1010.9 | |
| 20260502071514 | 46 | 0.0 | 0.0 | 0.01 | 0.01 | 0.01 | 84 | 1011.4 | |
| 20260502071005 | 46 | 0.0 | 0.0 | 0.00 | 0.00 | 0.00 | 84 | 1011.3 | |
| 20260502070503 | 46 | 0.0 | 0.0 | 0.00 | 0.00 | 0.00 | 84 | 1011.1 | |
| 20260502070012 | 46 | 0.0 | 0.0 | 0.00 | 0.00 | 0.00 | 84 | 1010.9 | |
| 20260502065503 | 46 | 0.0 | 0.0 | 0.00 | 0.00 | 0.00 | 83 | 1010.9 | |
| 20260502065007 | 46 | 0.0 | 0.0 | 0.00 | 0.00 | 0.00 | 83 | 1011.0 | |
| 20260502064511 | 46 | 0.0 | 0.0 | 0.00 | 0.00 | 0.00 | 83 | 1011.3 | |
| 20260502064007 | 46 | 0.0 | 0.0 | 0.00 | 0.00 | 0.00 | 83 | 1011.3 | |
| 20260502063506 | 46 | 0.0 | 0.0 | 0.00 | 0.00 | 0.00 | 82 | 1011.2 | |
| 20260502063012 | 47 | 0.0 | 0.0 | 0.00 | 0.00 | 0.00 | 81 | 1011.3 | |
| 20260502062503 | 47 | 0.0 | 0.0 | 0.00 | 0.00 | 0.00 | 80 | 1011.2 | |
| 20260502062004 | 47 | 0.0 | 0.0 | 0.00 | 0.00 | 0.00 | 79 | 1011.1 | |
| 20260502061513 | 47 | 0.0 | 0.0 | 0.00 | 0.00 | 0.00 | 78 | 1011.2 | |
| 20260502061005 | 47 | 0.0 | 0.0 | 0.00 | 0.00 | 0.00 | 78 | 1011.3 | |
| 20260502060506 | 47 | 0.0 | 0.0 | 0.00 | 0.00 | 0.00 | 77 | 1011.6 | |
| 20260502060027 | 47 | 0.0 | 0.0 | 0.00 | 0.00 | 0.00 | 76 | 1011.4 | |
| 20260502055506 | 48 | 0.0 | 0.0 | 0.00 | 0.00 | 0.00 | 75 | 1011.0 | |
| 20260502055008 | 48 | 0.0 | 0.0 | 0.00 | 0.00 | 0.00 | 76 | 1011.0 | |
| 20260502054519 | 48 | 0.0 | 0.0 | 0.00 | 0.00 | 0.00 | 76 | 1011.2 | |
| 20260502054003 | 48 | 0.0 | 0.0 | 0.00 | 0.00 | 0.00 | 77 | 1011.2 | |
| 20260502053505 | 48 | 0.0 | 0.0 | 0.00 | 0.00 | 0.00 | 78 | 1011.0 | |
| 20260502053013 | 48 | 0.0 | 0.0 | 0.00 | 0.00 | 0.00 | 76 | 1010.9 | |
| 20260502052505 | 48 | 0.0 | 0.0 | 0.00 | 0.00 | 0.00 | 76 | 1011.0 | |
| 20260502052003 | 48 | 0.0 | 0.0 | 0.00 | 0.00 | 0.00 | 77 | 1011.1 | |
| 20260502051506 | 48 | 0.0 | 0.0 | 0.00 | 0.00 | 0.00 | 75 | 1011.0 | |
| 20260502051006 | 48 | 0.0 | 0.0 | 0.00 | 0.00 | 0.00 | 76 | 1011.0 | |
| 20260502050504 | 48 | 0.0 | 0.0 | 0.00 | 0.00 | 0.00 | 77 | 1011.1 | |
| 20260502050019 | 48 | 0.0 | 0.0 | 0.00 | 0.00 | 0.00 | 76 | 1011.4 | |
| 20260502045506 | 48 | 0.0 | 0.0 | 0.00 | 0.00 | 0.00 | 73 | 1011.5 | |
| 20260502045005 | 48 | 0.0 | 0.0 | 0.00 | 0.00 | 0.00 | 74 | 1011.5 | |
| 20260502044517 | 48 | 0.0 | 0.0 | 0.00 | 0.00 | 0.00 | 73 | 1011.6 | |
| 20260502044005 | 48 | 0.0 | 0.0 | 0.00 | 0.00 | 0.00 | 73 | 1011.6 | |
| 20260502043510 | 48 | 0.0 | 0.0 | 0.00 | 0.00 | 0.00 | 72 | 1011.6 | |
| 20260502043017 | 48 | 0.0 | 0.0 | 0.00 | 0.00 | 0.00 | 73 | 1011.6 | |
| 20260502042508 | 49 | 0.0 | 0.0 | 0.00 | 0.00 | 0.00 | 72 | 1011.5 | |
| 20260502042007 | 49 | 0.0 | 0.0 | 0.00 | 0.00 | 0.00 | 68 | 1011.5 | |
| 20260502041531 | 49 | 0.0 | 0.0 | 0.00 | 0.00 | 0.00 | 66 | 1011.4 | |
| 20260502041004 | 49 | 0.0 | 0.0 | 0.00 | 0.00 | 0.00 | 66 | 1011.4 | |
| 20260502040503 | 49 | 0.0 | 0.0 | 0.00 | 0.00 | 0.00 | 66 | 1011.3 | |
| 20260502040019 | 49 | 0.0 | 0.0 | 0.00 | 0.00 | 0.00 | 66 | 1011.3 | |
| 20260502035503 | 49 | 0.0 | 0.0 | 0.00 | 0.00 | 0.00 | 66 | 1011.2 | |
| 20260502035006 | 49 | 0.0 | 0.0 | 0.00 | 0.00 | 0.00 | 66 | 1011.2 | |
| 20260502034518 | 49 | 0.0 | 0.0 | 0.00 | 0.00 | 0.00 | 67 | 1011.2 | |
| 20260502034007 | 49 | 0.0 | 0.0 | 0.00 | 0.00 | 0.00 | 67 | 1011.3 | |
| 20260502033503 | 49 | 0.0 | 0.0 | 0.00 | 0.00 | 0.00 | 66 | 1011.3 | |
| 20260502033011 | 49 | 0.0 | 0.0 | 0.00 | 0.00 | 0.00 | 66 | 1011.4 | |
| 20260502032503 | 49 | 0.0 | 0.0 | 0.00 | 0.00 | 0.00 | 65 | 1011.3 | |
| 20260502032003 | 49 | 0.0 | 0.0 | 0.00 | 0.00 | 0.00 | 64 | 1011.4 | |
| 20260502031505 | 49 | 0.0 | 0.0 | 0.00 | 0.00 | 0.00 | 63 | 1011.4 | |
| 20260502031003 | 49 | 0.0 | 0.0 | 0.00 | 0.00 | 0.00 | 62 | 1011.5 | |
| 20260502030502 | 50 | 0.0 | 0.0 | 0.00 | 0.00 | 0.00 | 62 | 1011.5 | |
| 20260502030010 | 50 | 0.0 | 0.0 | 0.00 | 0.00 | 0.00 | 60 | 1011.5 | |
| 20260502025503 | 51 | 0.0 | 0.0 | 0.00 | 0.00 | 0.00 | 59 | 1011.6 | |
| 20260502025007 | 50 | 0.0 | 0.0 | 0.00 | 0.00 | 0.00 | 58 | 1011.6 | |
| 20260502024511 | 50 | 0.0 | 0.0 | 0.00 | 0.00 | 0.00 | 57 | 1011.7 | |
| 20260502024003 | 50 | 0.0 | 0.0 | 0.00 | 0.00 | 0.00 | 55 | 1011.6 | |
| 20260502023503 | 51 | 0.0 | 0.0 | 0.00 | 0.00 | 0.00 | 54 | 1011.6 | |
| 20260502023026 | 51 | 0.0 | 0.0 | 0.00 | 0.00 | 0.00 | 53 | 1011.6 | |
| 20260502022504 | 51 | 0.0 | 0.0 | 0.00 | 0.00 | 0.00 | 52 | 1011.7 | |
| 20260502022005 | 51 | 0.0 | 0.0 | 0.00 | 0.00 | 0.00 | 52 | 1011.6 | |
| 20260502021511 | 52 | 0.0 | 0.0 | 0.00 | 0.00 | 0.00 | 52 | 1011.5 | |
| 20260502021008 | 52 | 0.0 | 0.0 | 0.00 | 0.00 | 0.00 | 50 | 1011.5 | |
| 20260502020503 | 53 | 0.0 | 0.0 | 0.00 | 0.00 | 0.00 | 50 | 1011.5 | |
| 20260502020008 | 53 | 0.0 | 0.0 | 0.00 | 0.00 | 0.00 | 47 | 1011.6 | |
| 20260502015504 | 53 | 0.0 | 0.0 | 0.00 | 0.00 | 0.00 | 47 | 1011.6 | |
| 20260502015004 | 53 | 0.0 | 0.0 | 0.00 | 0.00 | 0.00 | 49 | 1011.6 | |
| 20260502014511 | 53 | 0.0 | 0.0 | 0.00 | 0.00 | 0.00 | 49 | 1011.6 | |
| 20260502014003 | 53 | 0.0 | 0.0 | 0.00 | 0.00 | 0.00 | 48 | 1011.4 | |
| 20260502013503 | 53 | 0.0 | 0.0 | 0.00 | 0.00 | 0.00 | 48 | 1011.4 | |
| 20260502013012 | 53 | 0.0 | 0.0 | 0.00 | 0.00 | 0.00 | 47 | 1011.2 | |
| 20260502012503 | 53 | 0.0 | 0.0 | 0.00 | 0.00 | 0.00 | 46 | 1011.2 | |
| 20260502012004 | 54 | 0.0 | 0.0 | 0.00 | 0.00 | 0.00 | 46 | 1011.1 | |
| 20260502011514 | 54 | 0.0 | 0.0 | 0.00 | 0.00 | 0.00 | 46 | 1010.9 | |
| 20260502011003 | 54 | 0.0 | 0.0 | 0.00 | 0.00 | 0.00 | 46 | 1010.9 | |
| 20260502010503 | 54 | 0.0 | 0.0 | 0.00 | 0.00 | 0.00 | 45 | 1010.8 | |
| 20260502010014 | 54 | 0.0 | 0.0 | 0.00 | 0.00 | 0.00 | 46 | 1010.7 | |
| 20260502005503 | 54 | 0.0 | 0.0 | 0.00 | 0.00 | 0.00 | 44 | 1010.7 | |
| 20260502005003 | 54 | 0.0 | 0.0 | 0.00 | 0.00 | 0.00 | 45 | 1010.7 | |
| 20260502004510 | 55 | 0.0 | 0.0 | 0.00 | 0.00 | 0.00 | 45 | 1010.6 | |
| 20260502004005 | 55 | 0.0 | 0.0 | 0.00 | 0.00 | 0.00 | 44 | 1010.6 | |
| 20260502003503 | 55 | 0.0 | 0.0 | 0.00 | 0.00 | 0.00 | 44 | 1010.5 | |
| 20260502003015 | 54 | 0.0 | 0.0 | 0.00 | 0.00 | 0.00 | 46 | 1010.5 | |
| 20260502002508 | 54 | 0.0 | 0.0 | 0.00 | 0.00 | 0.00 | 45 | 1010.5 | |
| 20260502002006 | 54 | 0.0 | 0.0 | 0.00 | 0.00 | 0.00 | 45 | 1010.3 | |
| 20260502001512 | 54 | 0.0 | 0.0 | 0.00 | 0.00 | 0.00 | 45 | 1010.3 | |
| 20260502001006 | 54 | 0.0 | 0.0 | 0.00 | 0.00 | 0.00 | 47 | 1010.2 | |
| 20260502000506 | 55 | 0.0 | 0.0 | 0.00 | 0.00 | 0.00 | 46 | 1010.2 | |
| 20260502000013 | 55 | 0.0 | 0.0 | 0.00 | 0.00 | 0.00 | 46 | 1010.2 | |
| 20260501235506 | 55 | 0.0 | 0.0 | 0.00 | 0.00 | 0.00 | 43 | 1010.1 | |
| 20260501235005 | 55 | 0.0 | 0.0 | 0.00 | 0.00 | 0.00 | 42 | 1010.1 | |
| 20260501234512 | 55 | 0.0 | 0.0 | 0.00 | 0.00 | 0.00 | 42 | 1010.0 | |
| 20260501234003 | 55 | 0.0 | 0.0 | 0.00 | 0.00 | 0.00 | 42 | 1009.9 | |
| 20260501233503 | 56 | 0.0 | 0.0 | 0.00 | 0.00 | 0.00 | 41 | 1009.8 | |
| 20260501233011 | 56 | 0.0 | 0.0 | 0.00 | 0.00 | 0.00 | 43 | 1009.7 | |
| 20260501232507 | 56 | 0.0 | 0.0 | 0.00 | 0.00 | 0.00 | 39 | 1009.7 | |
| 20260501232007 | 56 | 0.0 | 0.0 | 0.00 | 0.00 | 0.00 | 39 | 1009.7 | |
| 20260501231516 | 57 | 0.0 | 0.0 | 0.00 | 0.00 | 0.00 | 38 | 1009.6 | |
| 20260501231006 | 57 | 0.0 | 0.0 | 0.00 | 0.00 | 0.00 | 38 | 1009.6 | |
| 20260501230508 | 57 | 0.0 | 0.0 | 0.00 | 0.00 | 0.00 | 37 | 1009.5 | |
| 20260501230032 | 57 | 0.0 | 0.0 | 0.00 | 0.00 | 0.00 | 37 | 1009.5 | |
| 20260501225506 | 57 | 0.0 | 0.0 | 0.00 | 0.00 | 0.00 | 38 | 1009.4 | |
| 20260501225005 | 57 | 0.0 | 0.0 | 0.00 | 0.00 | 0.00 | 39 | 1009.5 | |
| 20260501224519 | 57 | 0.0 | 0.0 | 0.00 | 0.00 | 0.00 | 40 | 1009.4 | |
| 20260501224004 | 57 | 0.0 | 0.0 | 0.00 | 0.00 | 0.00 | 38 | 1009.4 | |
| 20260501223506 | 57 | 0.0 | 0.0 | 0.00 | 0.00 | 0.00 | 38 | 1009.4 | |
| 20260501223017 | 58 | 0.0 | 0.0 | 0.00 | 0.00 | 0.00 | 36 | 1009.4 | |
| 20260501222503 | 58 | 0.0 | 0.0 | 0.00 | 0.00 | 0.00 | 35 | 1009.4 | |
| 20260501222003 | 58 | 0.0 | 0.0 | 0.00 | 0.00 | 0.00 | 36 | 1009.4 |